Powrót do katalogu

STARLINK-31820

AktywnyŁącznośćVLEO
NORAD 59725·PAYLOAD·🇺🇸 United States

Wystrzelony May 10, 2024 z Vandenberg Space Force Base

Loading…

Następne Przeloty (najbliższe 24 godziny)

TLE

ŚwieżeSource: CelesTrak SupGP

Epoka: Sep 15, 2026, 02:57 UTC

1 59725C 24088T   26258.12340278  .00070541  00000+0  22687-2 0  2581
2 59725  53.1581 338.6946 0001132  96.9497 269.7328 15.31662137    16

Śledź STARLINK-31820 w czasie rzeczywistym z AllMySat

Download on the App Store